Погода в Канске

Погода в Канске : погода сейчас, прогноз погоды и архив. Всё, что Вы хотите узнать о погоде в Канске!

Хотите узнать прогноз погоды в Канске? Тогда Вам сюда: Погода в Канске

Поиск расширенной информации на нашем сайте:

Другие новости

Новости СМИ2

Главная страница сайта

Новости сайта

03.07.2017

Напоминаем, что на нашем специализированном сайте Метеоцентр.Азия вы можете получить высокодетализированные автоматические прогнозы погоды по пунктам России, СНГ и мира в авиационном формате (включающие направление и скорость ветра, видимость, явления погоды, количество и форму облачности, нижнюю и верхнюю границу облачности).


Погода в Канске - сегодня

Время (UTC), дата Ветер
(°,м/с) 
Видим.   Явления Облачность Т
(°С)
Тd
(°С)
f(%) Тe
(°С)
Pmin
(гПа)
dP
(гПа)
Po
(мм)
O2
(г/м3)
Тmin Tmax R s Состояние
почвы
12 15.04.18 260 (З) 5{13}  20000 м    8/3 1000 м средняя, верхняя 
[Sc diur, vesp|Ac trans|Ci fib]
+5 -7.4 40 +3  1009.9  0.5  739  293    +7.3       
15 15.04.18 180 (Ю) н/о    3/0 средняя 
[Ac trans]
-0.7 -6.3 66 -2  1010.6  0.2  739  299           
18 15.04.18 240 (ЮЗ) н/о    5/0 средняя 
[Ac trans]
+1.1 -4.8 65 +2  1010.8  0.4  739  297           
21 15.04.18 тихо ()   н/о    6/0 средняя, верхняя 
[Ac trans|Ci fib]
-0.1 -4.7 71 -0  1010.7  -0.3  739  298           
00 16.04.18 200 (Ю) 20000 м    8/0 средняя, верхняя 
[Ac trans|Ci fib]
+1.9 -4.7 62 1010.5  739  296  -2        замёрзшая 
12 16.04.18 230 (ЮЗ) 2{11}  20000 м    9/3 1000 м средняя, верхняя 
[Sc|Ac trans|Ci fib]
+10.6 -4 36 +11  1003.6  -1.7  735  285    +12.4       
15 16.04.18 тихо ()   н/о    9/3 1000 м средняя, верхняя 
[Sc|Ac trans|Ci fib]
+3.8 -0.2 75 +4  1003.8  -0.4  734  292           
18 16.04.18 тихо ()   н/о    3/0 средняя 
[Ac trans]
+0.8 -2.2 80 +1  1003  -1.1  733  295           
00 17.04.18 240 (ЮЗ) 20000 м    3/0 верхняя 
[Ci fib]
+4.6 -1.7 64 +2  1004.5  1.9  735  291  -3.6        влажная 
12 17.04.18 270 (З) 4{13}  20000 м  {ливн. осадки}  9/5 600 м кучево-дожд., средняя, верхняя 
[Cb cap|Ac As|Ci fib]
+5.4 -2.4 57 +4  1005.9  736  291    +11.9  0.8     
15 17.04.18 290 (З) н/о    8/3 1000 м средняя 
[Sc diur, vesp|Ac trans]
+2.4 -2.9 68 +3  1007  0.8  737  294           
18 17.04.18 260 (З) н/о    9/6 600 м кучево-дожд., средняя 
[Cb cap|Ac As]
+0.1 -3.2 78 -3  1009.4  2.1  738  298           
21 17.04.18 250 (З) 6{10}  н/о    8/5 600 м кучево-дожд., средняя 
[Cb cap|Ac trans]
-1.8 -5.2 78 -6  1012.5  2.9  740  301           
00 18.04.18 250 (З) 5{11}  20000 м  {ливн. осадки}  4/4 600 м кучево-дожд. 
[Cb cap]
-2.1 -6.7 71 -5  1014.6  1.9  742  302  -2.6    0.0  сухой снег
10-40% 
09 18.04.18 270 (З) 3{13}  20000 м    8/8 600 м кучево-дожд. 
[Cb cap]
+2.4 -10.5 38 +1  1017.2  0.4  744  298           
12 18.04.18 280 (З) 20000 м    4/4 600 м кучево-дожд. 
[Cb cap]
+1.4 -11.3 38 +1  1017.2  -0.1  744  299    +3.8  0.0     
15 18.04.18 260 (З) н/о    ясно 
-4.3 -9.8 65 -4  1019.2  1.3  745  306           
18 18.04.18 250 (З) н/о    ясно 
-5.6 -9.7 73 -7  1021.1  1.2  746  308           
21 18.04.18 тихо ()   н/о    8/0 средняя 
[Ac trans]
-6.5 -9.7 78 -7  1021.1  0.6  746  309           
00 19.04.18 250 (З) 20000 м    3/0 верхняя 
[Ci fib]
-5 -8.6 76 -5  1021.9  0.9  747  307  -7.8        замёрзшая 
03 19.04.18 230 (ЮЗ) 20000 м    5/3 1000 м средняя 
[Sc|Ac trans]
-1.3 -11.3 46 -3  1022.1  0.6  747  304           
06 19.04.18 270 (З) 3{10}  20000 м    9/5 600 м кучево-дожд., средняя, верхняя 
[Cb cap|Ac trans|Ci fib]
+1.6 -11.5 37 1031.2  -0.9  754  303           
09 19.04.18 290 (З) 3{11}  20000 м    9/5 600 м кучево-дожд., средняя, верхняя 
[Cb cap|Ac trans|Ci fib]
+2.6 -12.1 33 +1  1020.1  -0.8  746  299           
12 19.04.18 280 (З) 20000 м    8/5 600 м кучево-дожд., средняя 
[Cb cap|Ac As]
+2 -11.7 35 +3  1020.4  0.2  746  300    +3.6       
15 19.04.18 100 (В) н/о    ясно 
-4.6 -8.9 72 -4  1021.2  0.3  746  307           
Время (UTC), дата Ветер
(°,м/с) 
Видим.   Явления Облачность Т
(°С)
Тd
(°С)
f(%) Тe
(°С)
Pmin
(гПа)
dP
(гПа)
Po
(мм)
O2
(г/м3)
Тmin Tmax R s Состояние
почвы

Для получения пояснительной информации подведите курсор к названию столбца.

ПОГОДА в Канске - архив

Всё, что Вы хотите узнать о погоде в Канске - удобно и подробно!

Выберите нужную дату (начиная с 1 января 2015* года) и нажмите кнопку "Найти".
Будут отображены архивные сводки погоды по пункту Канск, начиная с указанной даты.


Отображать данные в формате CSV (для использования в таблицах Excel)


Внимание! Наш архив погоды предназначен исключительно для личного некоммерческого использования в познавательных целях. Если Вам необходимы официальные справки о состоянии погоды (для производственных, юридических, коммерческих и т.п. целей), обращайтесь в органы Росгидромета.

*Примечание: данная дата относится к архиву по метеостанциям СССР (Россия, СНГ, Балтия).
Архив по метеостанциям Зарубежной Европы и Азии (кроме Китая) хранится 10 дней, по другим регионам земного шара (Китай, Африка, Америка, Австралия, Океания) - 1 день.

Канск - район местоположения метеостанции


Название, широта, долгота, высота метеостанции:
Канск 56.2°ш. 95.6°д. 207 м над ур. моря [Российская Федерация]

Дополнительная информация

В oтличие oт бoльшинства пoгoдных сайтoв мы публикуем пoдрoбную метеoинфoрмацию в детальнoм прoфессиoнальнoм фoрмате.

Характеристики температуры и влажнoсти вoздуха измеряются на высoте 2 м в тени вдали oт зданий и деревьев.
Скoрoсть ветра измеряется на высoте 10 м (на урoвне рoста челoвека скoрoсть ветра ниже в 1.5-2 раза). Если метеoстанция нахoдится в гoрoде или в лесу, тo скoрoсть ветра занижена на 2-4 м/с пo сравнению с oткрытым местoм. Скoрoсть ветра над акватoриями крупных рек и oзёр, а также на вершинах хoлмoв на 2-5 м/с выше, чем в oбычных услoвиях.
Атмoсфернoе давление в разных тoчках местнoсти мoжет значительнo oтличаться oт давления на метеoстанции, в зависимoсти oт услoвий рельефа (при пoдъёме на 10 м давление пoнижается примернo на 1 мм рт.ст.).